"Pseudo-MPEC" for P21klsU

Created 2021 Sep 20 17:07:17 UT using Find_Orb

Click here for an explanation of pseudo-MPECs

 
 Astrometry: 
     P21klsU  C2021 09 07iGR(4JIjx=BLllq7!W+.@)48s/\tb.h14Xc+vN0AstrometrytNHF52
     P21klsU  C2021 09 07u_fH-d\y]F5WbS?redacted;XA+lynwO2%,CZkus1VAr@click$LF52
     P21klsU  C2021 09 07W$ahfo-D6l6jagsMm%Jm9oB3'xTSr2%)6gqV\YLKjfXjn%or/hnvF52
     P21klsU  C2021 09 07oG*Hs=N#-ot+-W3/NSAGFg@rP.fWg1Yherea(afordiV8-;FLs35F51
     P21klsU  C2021 09 07!f0sh0:.(kpHqM6\,wdH;T$S;tSgG@VH-fuuv5]XZS[,qhfH-4c;F51
     P21klsU 1C2021 09 07mpVg$x4DT6QueKTc^5p?uPj==8J+U?RKvs)taN(wYW:]qWA,N`[$246
     P21klsU 1C2021 09 07*xuB#[QB3V-`lnhOFG,b;C3sdsG$T%.SU*V6[explanationR#8q246
     P21klsU KC2021 09 08.03851501 05 57.44 -16 25 04.0    ~982b 19.2 GVNEOCPJ95
     P21klsU KC2021 09 08.07605401 06 24.20 -16 48 15.3    ~982b 19.6 GVNEOCPJ95
     P21klsU KC2021 09 08.09124401 06 35.12 -16 57 39.4    ~982b 19.5 GVNEOCPJ95

Station data:
(246) Klet Observatory-KLENOT  (N48.863994 E14.284760)  Czech Republic.
   1.06-m KLENOT telescope.
(F51) Pan-STARRS 1, Haleakala  (N20.707235 W156.255910)  US/Hawaii.
   Observers N. Primak, A. Schultz, S. Watters, J. Thiel, T. Goggia. Measurer
   PS1 Science Consortium. 1.8-m Ritchey-Chrétien + CCD.
(F52) Pan-STARRS 2, Haleakala  (N20.707384 W156.255910)  US/Hawaii. 1.8-m
   Ritchey-Chrétien + CCD.
(J95) Great Shefford  (N51.474969 W1.447003)  UK.  Observer P. Birtwhistle.
   0.40-m f/6.0 Schmidt-Cassegrain + CCD.

Orbital elements:  P21klsU
   Perihelion 2021 Dec 2.988300 TT = 23:43:09 (JD 2459551.488300)
Epoch 2021 Sep  8.0 TT = JDT 2459465.5   Earth MOID: 0.0125   Ve: 0.0073
M 258.02240406                      (J2000 ecliptic)
n   1.18594733     Peri.  317.46143
a   0.88394609     Node   162.57652
e   0.3307637      Incl.    7.05184
P   0.83/303.55d   H   27.0     G   0.15   q 0.59156874  Q 1.17632343
5 of 10 observations 2021 Sept. 7-8 (3.2 hr); mean residual 1".09
Residuals in arcseconds: 
210907 F52(53.9+ 1369+)   210907 F51( 188+ 1029+)   210908 J95  .15+  1.7-    
210907 F52(72.7+ 1321+)   210907 246  1.4-  .79+    210908 J95  .09-  1.1+    
210907 F52( 110+ 1226+)   210907 246  1.5+  1.5-    
210907 F51( 187+ 1032+)   210908 J95  .07-  .73+    

Ephemerides (geocentric):
Date (UTC) HH   RA              Dec         delta   r     elong  mag " sig PA
---- -- -- --  -------------   -----------  ------ ------ -----  --- ---- ---
2021 09 20 17  11 53 56.710   -34 56 51.55  .05450 .96050  35.9 27??  24d  19
2021 09 20 18  11 54 02.260   -34 53 39.29  .05472 .96028  35.8 27??  24d  19
2021 09 20 19  11 54 07.759   -34 50 28.37  .05494 .96006  35.7 27??  24d  19
2021 09 20 20  11 54 13.207   -34 47 18.77  .05516 .95983  35.7 27??  24d  19
2021 09 20 21  11 54 18.605   -34 44 10.47  .05537 .95961  35.6 27??  24d  19
2021 09 20 22  11 54 23.954   -34 41 03.47  .05559 .95938  35.5 27??  24d  19
2021 09 20 23  11 54 29.255   -34 37 57.75  .05581 .95916  35.5 27??  24d  19
2021 09 21 00  11 54 34.507   -34 34 53.30  .05603 .95893  35.4 27??  24d  19
2021 09 21 01  11 54 39.713   -34 31 50.09  .05625 .95871  35.3 27??  24d  19
2021 09 21 02  11 54 44.871   -34 28 48.11  .05646 .95848  35.3 27??  24d  19
2021 09 21 03  11 54 49.984   -34 25 47.36  .05668 .95826  35.2 27??  24d  19
2021 09 21 04  11 54 55.051   -34 22 47.81  .05690 .95803  35.1 28??  24d  19
2021 09 21 05  11 55 00.073   -34 19 49.46  .05712 .95781  35.1 28??  24d  19
2021 09 21 06  11 55 05.051   -34 16 52.28  .05734 .95758  35.0 28??  24d  19
2021 09 21 07  11 55 09.985   -34 13 56.27  .05756 .95736  34.9 28??  24d  19
2021 09 21 08  11 55 14.877   -34 11 01.42  .05777 .95713  34.9 28??  24d  19
2021 09 21 09  11 55 19.725   -34 08 07.70  .05799 .95691  34.8 28??  24d  19
2021 09 21 10  11 55 24.532   -34 05 15.11  .05821 .95668  34.7 28??  24d  19
2021 09 21 11  11 55 29.298   -34 02 23.64  .05843 .95645  34.7 28??  24d  19
2021 09 21 12  11 55 34.022   -33 59 33.27  .05865 .95623  34.6 28??  24d  19
2021 09 21 13  11 55 38.706   -33 56 43.99  .05887 .95600  34.6 28??  24d  19
2021 09 21 14  11 55 43.350   -33 53 55.79  .05909 .95578  34.5 28??  24d  19
2021 09 21 15  11 55 47.955   -33 51 08.66  .05931 .95555  34.4 28??  24d  19
2021 09 21 16  11 55 52.521   -33 48 22.58  .05952 .95532  34.4 28??  24d  19
2021 09 21 17  11 55 57.049   -33 45 37.55  .05974 .95510  34.3 28??  24d  19
2021 09 21 18  11 56 01.539   -33 42 53.54  .05996 .95487  34.2 28??  24d  19
2021 09 21 19  11 56 05.991   -33 40 10.56  .06018 .95464  34.2 28??  24d  19
2021 09 21 20  11 56 10.407   -33 37 28.59  .06040 .95442  34.1 28??  24d  19
2021 09 21 21  11 56 14.786   -33 34 47.62  .06062 .95419  34.1 28??  24d  19
2021 09 21 22  11 56 19.129   -33 32 07.63  .06084 .95396  34.0 28??  24d  19
2021 09 21 23  11 56 23.436   -33 29 28.63  .06106 .95374  33.9 28??  24d  19
2021 09 22 00  11 56 27.709   -33 26 50.59  .06128 .95351  33.9 28??  24d  19
2021 09 22 01  11 56 31.946   -33 24 13.50  .06150 .95328  33.8 28??  24d  19
2021 09 22 02  11 56 36.149   -33 21 37.37  .06172 .95305  33.8 28??  24d  19
2021 09 22 03  11 56 40.319   -33 19 02.17  .06194 .95283  33.7 28??  24d  19
2021 09 22 04  11 56 44.455   -33 16 27.89  .06216 .95260  33.6 28??  24d  19
2021 09 22 05  11 56 48.558   -33 13 54.54  .06238 .95237  33.6 28??  24d  19
2021 09 22 06  11 56 52.628   -33 11 22.09  .06260 .95214  33.5 28??  24d  19
2021 09 22 07  11 56 56.666   -33 08 50.54  .06282 .95192  33.5 28??  24d  19
2021 09 22 08  11 57 00.673   -33 06 19.87  .06304 .95169  33.4 28??  24d  18
2021 09 22 09  11 57 04.647   -33 03 50.09  .06326 .95146  33.3 28??  23d  18
2021 09 22 10  11 57 08.591   -33 01 21.18  .06348 .95123  33.3 28??  23d  18
2021 09 22 11  11 57 12.504   -32 58 53.13  .06370 .95100  33.2 28??  23d  18
2021 09 22 12  11 57 16.387   -32 56 25.93  .06392 .95078  33.2 28??  23d  18
2021 09 22 13  11 57 20.239   -32 53 59.57  .06414 .95055  33.1 28??  23d  18
2021 09 22 14  11 57 24.062   -32 51 34.05  .06436 .95032  33.1 28??  23d  18
2021 09 22 15  11 57 27.856   -32 49 09.35  .06459 .95009  33.0 28??  23d  18
2021 09 22 16  11 57 31.620   -32 46 45.47  .06481 .94986  33.0 28??  23d  18